weather.gov     
National Weather Service

Regional Weather Roundup
NWS Homepage
This page is being discontinued on March 12, 2014.
The same data is available at this site. Please update your bookmarks.
Thank you, and we apologize for the inconvenience.
Please send an email to SR-SRH.Webmaster@noaa.gov with any concerns.


Current Version
Previous Version:    01  02  03  04  05  06  07  08  09  10  11  12  13  14  15  16  17  18  19  20  21  22  23  24  25  26  27  
[Printable]
952
ASUS41 KAKQ 011410
RWRAKQ

REGIONAL WEATHER ROUNDUP
NATIONAL WEATHER SERVICE WAKEFIELD VA
1000 AM EDT MON SEP 01 2014

Note: "fair" indicates few or no clouds below 12,000 feet with no
significant weather and/or obstructions to visibility. * = Denotes
station may not report precipitation (e.g., rain,snow,etc.),
thunder or fog.

VAZ042-051-052>054-056-011500-
NORTHERN VIRGINIA

CITY           SKY/WX    TMP DP  RH WIND       PRES   REMARKS
WASH NATIONAL  MOSUNNY   82  73  74 SW7       30.02F
DULLES         MOSUNNY   78  73  84 SW8       30.03S
FORT BELVOIR   MOSUNNY   80  74  80 S6        30.03S
QUANTICO       MOSUNNY   79  74  84 S8        30.03F
FREDERICKSBRG* PTSUNNY   79  77  95 SW3       30.03R
STAFFORD*      MOSUNNY   79  79 100 SW3       30.07S
WARRENTON      MOSUNNY   83  78  84 S5        30.03S
CULPEPER*      SUNNY    N/A N/A N/A SW6       30.03F
MANASSAS*      NOT AVBL
LEESBURG*      MOSUNNY   81  77  89 W3        30.04S
WINCHESTER     CLOUDY    77  70  78 SW8       30.04S
$$

VAZ048-049-060>072-079>083-011500-
CENTRAL AND SOUTH CENTRAL VIRGINIA...AND NORTH CENTRAL NORTH CAROLINA

CITY           SKY/WX    TMP DP  RH WIND       PRES   REMARKS
RICHMOND       PTSUNNY   84  73  69 SW8       30.04F
CHESTERFIELD*  MOSUNNY  N/A N/A N/A SW8       30.06F
PETERSBURG*    MOSUNNY   84  72  67 SW7       30.06F
HANOVER        PTSUNNY   83  73  72 SW8       30.06F
TAPPAHANNOCK*  PTSUNNY   81  72  74 S7        30.04F
CHARLOTTSVILLE SUNNY     80  73  79 S7        30.05S
ORANGE*        MOSUNNY   77  73  88 S6        30.06S
LOUISA*        MOSUNNY   79  73  83 SW7       30.04S
FARMVILLE*     PTSUNNY   81  75  83 SW6       30.05S
SOUTH HILL*      N/A     84  77  79 W5        30.13S
ROANOKE RAPIDS SUNNY     79  73  83 SW7       30.09F
RALEIGH        MOSUNNY   81  73  76 SW6       30.11F
$$

VAZ088>098-011500-
SOUTHEAST VIRGINIA

CITY           SKY/WX    TMP DP  RH WIND       PRES   REMARKS
NORFOLK        MOSUNNY   84  73  69 SW9       30.06F
VIRGINIA BEACH PTSUNNY   83  74  74 SW12      30.06F
NORFOLK NAVAL  PTSUNNY   84  74  71 SW7       30.08F
WEST POINT*    MOSUNNY   84  73  67 SW6       30.06F
NEWPORT NEWS   MOSUNNY   86  74  67 SW7       30.06F
LANGLEY AFB    MOSUNNY   84  75  75 SW9       30.05F
FORT EUSTIS    MOSUNNY   83  77  82 S6        30.04F
WILLIAMSBURG*  MOSUNNY   84  75  74 S7        30.06F
FRANKLIN*      PTSUNNY   81  73  78 SW5       30.08S
WAKEFIELD      MOSUNNY   82  73  74 SW7       30.06F
$$

VAZ020-022-025-037-045-011500-
WESTERN AND SOUTHWEST VIRGINIA

CITY           SKY/WX    TMP DP  RH WIND       PRES   REMARKS
STAUNTON*      PTSUNNY   82  66  60 S9        30.09F
HOT SPRINGS VA CLOUDY    66  64  94 W14       30.23S
LYNCHBURG      PTSUNNY   75  71  87 SW3       30.11S
DANVILLE       PTSUNNY   80  73  79 SW7       30.11R
MARTINSVILLE   CLOUDY    80  72  75 CALM      30.15S
ROANOKE        MOSUNNY   79  67  66 W8        30.13F
BLACKSBURG     MOSUNNY   79  70  73 W7        30.19S
DUBLIN*        PTSUNNY   78  70  78 S3        30.19S
MARION*        MOSUNNY  N/A N/A N/A W16       30.23R
HILLSVILLE*    CLOUDY    72  65  81 CALM      30.21F
RICHLANDS*     CLOUDY    73  68  84 W6        30.21S
WISE*          SUNNY     73  68  83 W9        30.22S
ABINGDON*      PTSUNNY   77  71  82 W7        30.19S
$$

MDZ021>025-VAZ099-100-011500-
SOUTHERN MARYLAND AND THE DELMARVA PENINSULA

CITY           SKY/WX    TMP DP  RH WIND       PRES   REMARKS
PATUXENT RIVER CLOUDY    78  74  87 S9        30.02S
BAY BRIDGE APT   N/A     79  73  83 CALM      30.02S
LEONARDTOWN    CLOUDY    77  72  83 S6        30.04S
DOVER          CLOUDY    78  78 100 SW7       30.02S
GEORGETOWN     LGT RAIN  79  75  87 S10       30.04F
EASTON         PTSUNNY   81  81 100 CALM      30.06S
CAMBRIDGE      CLOUDY    79  72  78 CALM      30.02S
SALISBURY      PTSUNNY   83  75  77 S6        30.04S
OCEAN CITY     PTSUNNY   82  74  76 SW9       30.05S
WALLOPS ISLAND PTSUNNY   84  76  76 W7        30.06S
ACCOMACK*      NOT AVBL
$$

NCZ012>017-030>032-011500-
EASTERN NORTH CAROLINA

CITY           SKY/WX    TMP DP  RH WIND       PRES   REMARKS
ELIZABETH CITY MOSUNNY   82  76  81 W9        30.10S
AHOSKIE*       MOSUNNY   81  74  80 S5        30.09S
EDENTON*       MOSUNNY   81  76  86 SW7       30.10F
CURRITUCK*     MOSUNNY   83  74  74 SW9       30.10S
KILL DEVIL HLS MOSUNNY   83  75  78 SW6       30.10S
MANTEO         MOSUNNY   83  75  78 SW9       30.11F
CAPE HATTERAS  MOSUNNY   83  77  82 SW9       30.13R
GOLDSBORO      PTSUNNY   82  79  91 SW6       30.10S
WASHINGTON     SUNNY     82  75  80 S8        30.11F
GREENVILLE     PTSUNNY   82  77  83 SW7       30.12S
NEW BERN       SUNNY     86  76  71 SW7       30.13F HX  96
WILMINGTON     MOSUNNY   83  76  79 W8        30.12F
$$

VAZ048-011500-
ELSEWHERE

CITY           SKY/WX    TMP DP  RH WIND       PRES   REMARKS
HARRISBURG PA  CLOUDY    78  71  79 CALM      30.02S
BALTIMORE      PTSUNNY   80  73  79 W5        30.02F
ANNAPOLIS      MOSUNNY   80  72  76 CALM      30.02S
ANDREWS AFB    MOSUNNY   81  74  79 SW8       30.03S
WILMINGTON DE  CLOUDY    77  74  90 SW5       30.03S
PHILADELPHIA   CLOUDY    76  73  91 SW5       30.03R FOG
WILDWOOD NJ*   CLOUDY    79  72  78 SW8       30.04F
ATLANTIC CITY  PTSUNNY   78  73  84 SW7       30.03S
HENDERSON NC   MOSUNNY   81  71  71 SW6       30.10S
GREENSBORO     PTSUNNY   80  72  76 SW5       30.12S
ROCKY MOUNT    PTSUNNY   81  74  79 SW6       30.11S
FAYETTEVILLE   MOSUNNY   84  74  71 SW6       30.11S
CHARLOTTE      MOSUNNY   83  71  67 CALM      30.14S
$$

VAZ100-011500-
MARINE

STATION/POSITION TIME  TEMP    WIND        PRES    WAVE   SWELL
                       AIR SEA DIR/SP/G            HT/PER HT/PER
                 (UTC) (F)     (DEG/KT/KT) (MB)    (FT/S) (FT/S)
44066 TX TWR #4  1400   74 73  220/  8/ 10 1016.7S   4/ 6   3/ 6
CAPE MAY NJ      1400   78 80  230/  4/  4 1016.5F
LEWES DE         1400   79 76  260/  7/  9 1016.6F
15NM E FENWICK I 1300   76 74              1017.3S   3/ 5
OCEAN-CITY-INLET 1400   79 78  250/ 11/ 14 1017.0S
WACHAPREAGUE VA  1400   82 81  270/  8/ 12 1017.7S
THOMAS POINT MD  1400   77 78   40/  2/  3 1017.5S
GOOSES REEF MD   1400   78     200/  4/  6 1016.9R
COVE POINT MD    1400   78     210/  9/ 10 1016.2F
SOLOMONS ISLAND  1400      80                N/A
BISHOPS HEAD MD  1400   79 79  220/  6/  6 1016.7F
PINEY POINT MD   1400          180/  2/  3   N/A
POTOMAC MD       1400   79     240/  8/  8 1016.4R
CAMBRIDGE MD     1400   78 79  180/  4/  6 1016.2S
LEWISETTA VA     1400   80 80  200/  6/  8 1016.4F
RAPPAHANNOCK LGT 1400          200/  8/  9 1018.1F
STINGRAY PT      1400   79     240/  8/ 12   N/A
YORK RVR RNG VA  1400   82     250/  8/  9 1017.2S
YORKTOWN VA      1400   80 80  230/  7/  9 1017.4S
JAMESTOWN VA     1400   78     250/  6/  8   N/A
DOMINION TERM VA 1400   79     230/  8/ 10 1018.2F
KIPTOPEKE VA     1400      82  240/ 12/ 13   N/A
CHES BAY BRIDGE  1400   80 79  230/  8/ 11 1017.6S
CAPE HENRY VA    1400   81     220/  6/ 10 1017.0R
CHESAPEAKE LGHT  1300   79     220/ 12/ 13 1019.1F
WILLOUBY STN VA  1400   79     250/ 11/ 12 1016.7S
S CRANEY ISL VA  1400          220/  5/  9 1017.9S
CAPE HENRY BUOY  1400      79                N/A     3/ 9
1ST LANDING BUOY 1400   80     240/ 10/ 12 1017.9S
CAPE CHARLES BUO 1400      79                N/A     3/ 9   2/ 9
OFFSHORE WE BUOY 1400      78                N/A     3/ 9   2/ 9
64NM E OF VA BCH 1400   78 77  220/ 10/ 12 1018.7F   3/ 8   2/ 8
DUCK PIER NC     1400   80 75  230/ 13/ 16 1018.5F
44056 DUCK FRF   1300                        N/A     2/ 9
OREGON INLET NC  1400   81 82  240/ 11/ 12 1019.6S
HATTERAS NC      1400   84 83  240/  8/ 12 1020.7R
DIAMOND SHLS NC  1400   81     240/ 12/ 16 1020.0F   3/ 9   2/ 9
CAPE LOOKOUT NC  1300   82     210/  7/  9 1020.0S
$$




U.S. Dept. of Commerce
NOAA National Weather Service
1325 East West Highway
Silver Spring, MD 20910
E-mail: w-nws.webmaster@noaa.gov
Page last modified: May 16, 2007
NATIONAL WEATHER SERVICE: for Safety, for Work, for Fun - FOR LIFE